AAL1120 KABQ-KTUS

Flight info

Callsign AAL1120
Flight time 1h 4m
Altitude 30000
Route LARGO3 ABQ ONM J104 SSO ZONNA2
Aircraft B738/M-SDE2E3FGHIRWXY/LB1

Departure

Time 2026-04-23 19:06
Airport Albuquerque International Sunport (KABQ)

Arrival

Time 2026-04-23 20:11
Airport Tucson International Airport (KTUS)
Time Latitude Longitude Altitude Speed Heading
2026-04-23 18:51 35.04693 -106.61448 5333 ft 0 kts 342°
2026-04-23 18:56 35.04691 -106.61447 5333 ft 1 kts 343°
2026-04-23 18:57 35.04677 -106.61440 5333 ft 2 kts 329°
2026-04-23 18:57 35.04666 -106.61433 5333 ft 1 kts 330°
2026-04-23 18:57 35.04660 -106.61431 5333 ft 0 kts 32°
2026-04-23 18:57 35.04657 -106.61437 5333 ft 0 kts 78°
2026-04-23 18:58 35.04656 -106.61443 5333 ft 1 kts 84°
2026-04-23 18:58 35.04656 -106.61446 5333 ft 0 kts 83°
2026-04-23 18:59 35.04657 -106.61418 5333 ft 5 kts 87°
2026-04-23 19:00 35.04655 -106.61383 5334 ft 3 kts 112°
2026-04-23 19:00 35.04636 -106.61359 5334 ft 4 kts 136°
2026-04-23 19:00 35.04601 -106.61319 5334 ft 8 kts 136°
2026-04-23 19:00 35.04582 -106.61243 5335 ft 10 kts 92°
2026-04-23 19:01 35.04581 -106.61138 5335 ft 13 kts 89°
2026-04-23 19:01 35.04579 -106.61007 5335 ft 18 kts 91°
2026-04-23 19:01 35.04578 -106.60813 5337 ft 26 kts 90°
2026-04-23 19:01 35.04578 -106.60558 5339 ft 33 kts 90°
2026-04-23 19:02 35.04575 -106.60365 5339 ft 35 kts 90°
2026-04-23 19:02 35.04575 -106.59956 5341 ft 35 kts 84°
2026-04-23 19:02 35.04584 -106.59660 5343 ft 34 kts 90°
2026-04-23 19:02 35.04581 -106.59371 5346 ft 33 kts 91°
2026-04-23 19:03 35.04580 -106.59096 5348 ft 31 kts 91°
2026-04-23 19:03 35.04579 -106.58839 5350 ft 29 kts 89°
2026-04-23 19:03 35.04577 -106.58598 5355 ft 27 kts 91°
2026-04-23 19:03 35.04576 -106.58380 5357 ft 24 kts 90°
2026-04-23 19:04 35.04574 -106.58178 5361 ft 23 kts 90°
2026-04-23 19:04 35.04575 -106.57977 5364 ft 23 kts 89°
2026-04-23 19:04 35.04574 -106.57783 5368 ft 20 kts 91°
2026-04-23 19:04 35.04563 -106.57622 5370 ft 17 kts 115°
2026-04-23 19:05 35.04546 -106.57595 5370 ft 0 kts 143°
2026-04-23 19:05 35.04518 -106.57577 5370 ft 10 kts 164°
2026-04-23 19:05 35.04446 -106.57590 5370 ft 10 kts 212°
2026-04-23 19:05 35.04408 -106.57669 5368 ft 12 kts 265°
2026-04-23 19:06 35.04408 -106.57864 5366 ft 51 kts 269°
2026-04-23 19:06 35.04414 -106.58634 5353 ft 127 kts 270°
2026-04-23 19:06 35.04421 -106.59944 5510 ft 174 kts 269°
2026-04-23 19:06 35.04420 -106.61467 6103 ft 187 kts 266°
2026-04-23 19:07 35.04423 -106.62964 7231 ft 176 kts 268°
2026-04-23 19:07 35.04422 -106.64475 7786 ft 190 kts 269°
2026-04-23 19:07 35.04417 -106.66095 8522 ft 195 kts 270°
2026-04-23 19:07 35.04413 -106.67811 9147 ft 206 kts 270°
2026-04-23 19:08 35.04411 -106.69603 9762 ft 217 kts 271°
2026-04-23 19:08 35.04407 -106.71486 10359 ft 229 kts 270°
2026-04-23 19:08 35.04403 -106.73458 10929 ft 240 kts 271°
2026-04-23 19:08 35.04381 -106.75346 11459 ft 255 kts 268°
2026-04-23 19:09 35.04036 -106.77467 12328 ft 263 kts 251°
2026-04-23 19:09 35.03045 -106.79388 12988 ft 283 kts 230°
2026-04-23 19:09 35.01407 -106.80876 13636 ft 305 kts 213°
2026-04-23 19:09 34.99358 -106.81749 14255 ft 328 kts 196°
2026-04-23 19:10 34.97025 -106.81980 14899 ft 346 kts 187°
2026-04-23 19:10 34.94552 -106.81960 15532 ft 360 kts 185°
2026-04-23 19:10 34.92054 -106.81876 16329 ft 366 kts 186°
2026-04-23 19:10 34.89507 -106.81802 17254 ft 367 kts 187°
2026-04-23 19:11 34.86932 -106.81761 18104 ft 369 kts 188°
2026-04-23 19:11 34.84393 -106.81750 18973 ft 371 kts 188°
2026-04-23 19:11 34.81796 -106.81759 19743 ft 376 kts 189°
2026-04-23 19:11 34.79179 -106.81778 20448 ft 382 kts 189°
2026-04-23 19:12 34.77399 -106.81792 21001 ft 383 kts 189°
2026-04-23 19:12 34.73814 -106.81821 21989 ft 388 kts 189°
2026-04-23 19:12 34.71114 -106.81838 22733 ft 391 kts 189°
2026-04-23 19:12 34.68402 -106.81858 23380 ft 396 kts 190°
2026-04-23 19:13 34.65628 -106.81876 24086 ft 399 kts 190°
2026-04-23 19:13 34.63686 -106.81889 24550 ft 402 kts 189°
2026-04-23 19:13 34.60919 -106.81905 25243 ft 403 kts 190°
2026-04-23 19:13 34.58054 -106.81924 25726 ft 410 kts 190°
2026-04-23 19:14 34.55191 -106.81944 26294 ft 415 kts 190°
2026-04-23 19:14 34.52343 -106.81960 27017 ft 414 kts 191°
2026-04-23 19:14 34.49417 -106.81976 27583 ft 419 kts 191°
2026-04-23 19:14 34.46519 -106.81993 28165 ft 422 kts 191°
2026-04-23 19:15 34.43587 -106.82008 28775 ft 424 kts 191°
2026-04-23 19:15 34.40638 -106.82105 29300 ft 423 kts 194°
2026-04-23 19:15 34.37750 -106.82549 29749 ft 416 kts 202°
2026-04-23 19:15 34.35015 -106.83534 30064 ft 410 kts 211°
2026-04-23 19:16 34.32474 -106.85033 30068 ft 392 kts 220°
2026-04-23 19:16 34.30268 -106.86848 30073 ft 380 kts 226°
2026-04-23 19:16 34.28249 -106.88920 30070 ft 381 kts 230°
2026-04-23 19:17 34.22653 -106.95583 30070 ft 376 kts 233°
2026-04-23 19:17 34.18998 -107.00111 30065 ft 379 kts 233°
2026-04-23 19:18 34.15329 -107.04620 30063 ft 376 kts 232°
2026-04-23 19:18 34.11650 -107.09106 30086 ft 376 kts 232°
2026-04-23 19:19 34.06103 -107.15839 30090 ft 377 kts 232°
2026-04-23 19:20 34.00577 -107.22524 30126 ft 376 kts 232°
2026-04-23 19:20 33.96863 -107.27011 30129 ft 378 kts 232°
2026-04-23 19:21 33.91301 -107.33719 30138 ft 377 kts 232°
2026-04-23 19:22 33.87609 -107.38165 30140 ft 378 kts 232°
2026-04-23 19:22 33.82030 -107.44872 30152 ft 379 kts 232°
2026-04-23 19:23 33.78334 -107.49308 30159 ft 379 kts 232°
2026-04-23 19:24 33.72741 -107.56016 30168 ft 379 kts 232°
2026-04-23 19:24 33.67161 -107.62688 30170 ft 377 kts 232°
2026-04-23 19:25 33.59697 -107.71598 30171 ft 381 kts 231°
2026-04-23 19:26 33.54078 -107.78284 30175 ft 379 kts 231°
2026-04-23 19:27 33.44753 -107.89360 30186 ft 379 kts 231°
2026-04-23 19:28 33.37236 -107.98271 30194 ft 379 kts 231°
2026-04-23 19:29 33.31599 -108.04932 30206 ft 382 kts 231°
2026-04-23 19:30 33.25932 -108.11613 30195 ft 377 kts 231°
2026-04-23 19:30 33.22217 -108.15983 29822 ft 376 kts 231°
2026-04-23 19:31 33.20370 -108.18157 29560 ft 372 kts 230°
2026-04-23 19:31 33.18544 -108.20303 29308 ft 370 kts 230°
2026-04-23 19:31 33.16717 -108.22450 29064 ft 370 kts 231°
2026-04-23 19:31 33.14874 -108.24617 28813 ft 371 kts 231°
2026-04-23 19:32 33.13043 -108.26767 28564 ft 371 kts 231°
2026-04-23 19:32 33.11211 -108.28914 28315 ft 368 kts 231°
2026-04-23 19:32 33.09386 -108.31050 28069 ft 369 kts 230°
2026-04-23 19:32 33.07554 -108.33196 27823 ft 367 kts 230°
2026-04-23 19:33 33.05738 -108.35319 27575 ft 366 kts 230°
2026-04-23 19:33 33.03930 -108.37434 27329 ft 367 kts 230°
2026-04-23 19:33 33.00296 -108.41681 26832 ft 366 kts 230°
2026-04-23 19:34 32.98500 -108.43778 26587 ft 364 kts 230°
2026-04-23 19:34 32.96684 -108.45898 26334 ft 363 kts 230°
2026-04-23 19:34 32.93090 -108.50088 26164 ft 362 kts 230°
2026-04-23 19:35 32.91309 -108.52165 26163 ft 362 kts 230°
2026-04-23 19:35 32.89491 -108.54282 26164 ft 365 kts 230°
2026-04-23 19:35 32.87681 -108.56387 26154 ft 363 kts 230°
2026-04-23 19:35 32.85898 -108.58460 26156 ft 362 kts 230°
2026-04-23 19:36 32.84083 -108.60569 26152 ft 362 kts 230°
2026-04-23 19:36 32.82281 -108.62663 26153 ft 366 kts 230°
2026-04-23 19:36 32.80471 -108.64767 26144 ft 363 kts 230°
2026-04-23 19:36 32.78663 -108.66862 26142 ft 363 kts 230°
2026-04-23 19:37 32.76850 -108.68964 26144 ft 366 kts 230°
2026-04-23 19:37 32.75036 -108.71066 26132 ft 365 kts 230°
2026-04-23 19:37 32.73209 -108.73179 26133 ft 364 kts 230°
2026-04-23 19:37 32.71389 -108.75281 26131 ft 365 kts 230°
2026-04-23 19:38 32.69587 -108.77364 26127 ft 363 kts 229°
2026-04-23 19:38 32.67781 -108.79446 26129 ft 364 kts 230°
2026-04-23 19:38 32.65960 -108.81551 26126 ft 365 kts 229°
2026-04-23 19:38 32.64140 -108.83652 26120 ft 364 kts 229°
2026-04-23 19:39 32.62332 -108.85737 26113 ft 364 kts 230°
2026-04-23 19:39 32.60504 -108.87843 26112 ft 364 kts 229°
2026-04-23 19:39 32.58698 -108.89919 26112 ft 364 kts 229°
2026-04-23 19:39 32.56882 -108.92008 26107 ft 365 kts 230°
2026-04-23 19:40 32.55061 -108.94103 26107 ft 366 kts 229°
2026-04-23 19:40 32.53229 -108.96207 26106 ft 365 kts 230°
2026-04-23 19:40 32.51393 -108.98319 26006 ft 368 kts 230°
2026-04-23 19:40 32.49562 -109.00421 25762 ft 366 kts 229°
2026-04-23 19:41 32.47751 -109.02497 25507 ft 364 kts 229°
2026-04-23 19:41 32.45924 -109.04593 25256 ft 363 kts 229°
2026-04-23 19:41 32.44109 -109.06675 25010 ft 363 kts 229°
2026-04-23 19:41 32.42327 -109.08717 24765 ft 362 kts 229°
2026-04-23 19:42 32.40513 -109.10795 24513 ft 360 kts 229°
2026-04-23 19:42 32.38728 -109.12839 24267 ft 359 kts 229°
2026-04-23 19:42 32.36916 -109.14912 24018 ft 359 kts 229°
2026-04-23 19:42 32.35130 -109.16952 23760 ft 360 kts 229°
2026-04-23 19:43 32.33332 -109.19004 23500 ft 358 kts 229°
2026-04-23 19:43 32.31532 -109.21058 23238 ft 358 kts 229°
2026-04-23 19:43 32.29798 -109.23125 23079 ft 353 kts 232°
2026-04-23 19:43 32.28321 -109.25403 23073 ft 350 kts 240°
2026-04-23 19:44 32.27207 -109.27962 23074 ft 349 kts 250°
2026-04-23 19:44 32.26462 -109.30654 23079 ft 349 kts 256°
2026-04-23 19:44 32.25952 -109.33453 23078 ft 348 kts 259°
2026-04-23 19:44 32.25562 -109.36291 23084 ft 347 kts 261°
2026-04-23 19:45 32.25223 -109.39105 23085 ft 349 kts 262°
2026-04-23 19:45 32.24892 -109.41917 23085 ft 347 kts 262°
2026-04-23 19:45 32.24553 -109.44754 23087 ft 349 kts 262°
2026-04-23 19:45 32.24206 -109.47580 23088 ft 347 kts 262°
2026-04-23 19:46 32.23857 -109.50368 23088 ft 348 kts 261°
2026-04-23 19:46 32.23499 -109.53188 23083 ft 350 kts 261°
2026-04-23 19:46 32.23132 -109.56061 23096 ft 350 kts 261°
2026-04-23 19:46 32.22771 -109.58865 23030 ft 349 kts 261°
2026-04-23 19:47 32.22524 -109.60773 22857 ft 352 kts 261°
2026-04-23 19:47 32.22039 -109.64513 22291 ft 346 kts 261°
2026-04-23 19:47 32.21672 -109.67337 21744 ft 343 kts 261°
2026-04-23 19:47 32.21311 -109.70104 21214 ft 340 kts 261°
2026-04-23 19:48 32.21002 -109.72809 21093 ft 334 kts 263°
2026-04-23 19:48 32.20763 -109.75559 21097 ft 340 kts 264°
2026-04-23 19:48 32.20548 -109.78352 21093 ft 340 kts 264°
2026-04-23 19:48 32.20338 -109.81132 21097 ft 341 kts 264°
2026-04-23 19:49 32.20124 -109.83901 21093 ft 340 kts 264°
2026-04-23 19:49 32.19903 -109.86671 21103 ft 341 kts 264°
2026-04-23 19:49 32.19676 -109.89467 21104 ft 341 kts 264°
2026-04-23 19:49 32.19448 -109.92238 21107 ft 340 kts 264°
2026-04-23 19:50 32.19219 -109.94986 21104 ft 341 kts 264°
2026-04-23 19:50 32.18984 -109.97789 21112 ft 341 kts 264°
2026-04-23 19:50 32.18750 -110.00551 20888 ft 339 kts 264°
2026-04-23 19:50 32.18517 -110.03304 20346 ft 337 kts 264°
2026-04-23 19:51 32.18285 -110.06033 19775 ft 336 kts 264°
2026-04-23 19:51 32.18053 -110.08746 19197 ft 334 kts 264°
2026-04-23 19:51 32.17819 -110.11475 18615 ft 333 kts 264°
2026-04-23 19:51 32.17587 -110.14173 18040 ft 331 kts 265°
2026-04-23 19:52 32.17433 -110.15961 17654 ft 330 kts 265°
2026-04-23 19:52 32.17126 -110.19524 16881 ft 328 kts 265°
2026-04-23 19:52 32.16895 -110.22199 16308 ft 326 kts 265°
2026-04-23 19:52 32.16666 -110.24838 15714 ft 325 kts 265°
2026-04-23 19:53 32.16439 -110.27449 15165 ft 323 kts 265°
2026-04-23 19:53 32.16208 -110.30092 14619 ft 322 kts 265°
2026-04-23 19:53 32.16024 -110.32701 14135 ft 318 kts 268°
2026-04-23 19:53 32.16022 -110.35262 14054 ft 309 kts 272°
2026-04-23 19:54 32.16140 -110.37762 13810 ft 304 kts 273°
2026-04-23 19:54 32.16303 -110.40227 13350 ft 302 kts 274°
2026-04-23 19:54 32.16470 -110.42679 12857 ft 302 kts 274°
2026-04-23 19:54 32.16626 -110.45129 12338 ft 301 kts 274°
2026-04-23 19:55 32.16774 -110.47594 11827 ft 301 kts 274°
2026-04-23 19:55 32.16915 -110.50069 11310 ft 301 kts 273°
2026-04-23 19:55 32.17053 -110.52515 10823 ft 300 kts 273°
2026-04-23 19:55 32.17188 -110.54936 10508 ft 292 kts 274°
2026-04-23 19:56 32.17317 -110.57277 10358 ft 279 kts 274°
2026-04-23 19:56 32.17441 -110.59518 10245 ft 267 kts 274°
2026-04-23 19:56 32.17559 -110.61646 10076 ft 258 kts 274°
2026-04-23 19:56 32.17676 -110.63751 10019 ft 257 kts 273°
2026-04-23 19:57 32.17791 -110.65871 10012 ft 261 kts 273°
2026-04-23 19:57 32.17906 -110.67984 10004 ft 261 kts 273°
2026-04-23 19:57 32.17983 -110.69408 10000 ft 261 kts 273°
2026-04-23 19:57 32.18139 -110.72269 9993 ft 262 kts 273°
2026-04-23 19:58 32.18255 -110.74396 9987 ft 261 kts 273°
2026-04-23 19:58 32.18371 -110.76553 9984 ft 261 kts 273°
2026-04-23 19:58 32.18486 -110.78690 9954 ft 258 kts 273°
2026-04-23 19:58 32.18597 -110.80768 9789 ft 250 kts 273°
2026-04-23 19:59 32.18708 -110.82808 9461 ft 250 kts 273°
2026-04-23 19:59 32.18876 -110.84814 9123 ft 249 kts 279°
2026-04-23 19:59 32.19528 -110.86716 8983 ft 254 kts 304°
2026-04-23 19:59 32.20721 -110.88226 8981 ft 245 kts 314°
2026-04-23 20:00 32.21973 -110.89558 8811 ft 241 kts 314°
2026-04-23 20:00 32.23199 -110.90903 8476 ft 242 kts 313°
2026-04-23 20:00 32.24413 -110.92297 8123 ft 243 kts 312°
2026-04-23 20:00 32.25603 -110.93694 7823 ft 242 kts 312°
2026-04-23 20:01 32.26789 -110.95091 7521 ft 242 kts 312°
2026-04-23 20:01 32.27988 -110.96503 7214 ft 241 kts 313°
2026-04-23 20:01 32.29172 -110.97896 6999 ft 239 kts 313°
2026-04-23 20:01 32.30338 -110.99268 6986 ft 239 kts 313°
2026-04-23 20:02 32.31514 -111.00653 6978 ft 240 kts 313°
2026-04-23 20:02 32.32707 -111.02058 6978 ft 240 kts 313°
2026-04-23 20:02 32.33886 -111.03449 6979 ft 241 kts 313°
2026-04-23 20:02 32.35073 -111.04848 6979 ft 242 kts 313°
2026-04-23 20:03 32.36269 -111.06256 6979 ft 241 kts 313°
2026-04-23 20:03 32.37469 -111.07622 6980 ft 240 kts 314°
2026-04-23 20:03 32.38708 -111.08965 6976 ft 241 kts 315°
2026-04-23 20:03 32.39835 -111.10387 6854 ft 233 kts 299°
2026-04-23 20:04 32.40300 -111.12167 6568 ft 224 kts 270°
2026-04-23 20:04 32.39914 -111.13924 6063 ft 229 kts 240°
2026-04-23 20:04 32.38739 -111.15195 5670 ft 230 kts 207°
2026-04-23 20:04 32.37196 -111.15505 5461 ft 226 kts 177°
2026-04-23 20:05 32.36177 -111.15281 5280 ft 223 kts 169°
2026-04-23 20:05 32.34181 -111.14667 5167 ft 222 kts 168°
2026-04-23 20:05 32.32685 -111.14217 5170 ft 224 kts 168°
2026-04-23 20:05 32.31152 -111.13763 5169 ft 224 kts 168°
2026-04-23 20:06 32.29651 -111.13318 5169 ft 223 kts 168°
2026-04-23 20:06 32.28124 -111.12865 5169 ft 224 kts 168°
2026-04-23 20:06 32.26685 -111.12203 5164 ft 226 kts 148°
2026-04-23 20:06 32.25641 -111.10830 5175 ft 228 kts 123°
2026-04-23 20:07 32.24750 -111.09280 5167 ft 228 kts 130°
2026-04-23 20:07 32.23689 -111.07969 5164 ft 211 kts 139°
2026-04-23 20:07 32.22630 -111.06828 5171 ft 207 kts 139°
2026-04-23 20:07 32.21601 -111.05637 5168 ft 205 kts 136°
2026-04-23 20:08 32.20637 -111.04444 5084 ft 201 kts 135°
2026-04-23 20:08 32.19624 -111.03310 4730 ft 202 kts 141°
2026-04-23 20:08 32.18580 -111.02248 4528 ft 197 kts 138°
2026-04-23 20:08 32.17584 -111.01076 4093 ft 204 kts 135°
2026-04-23 20:09 32.16641 -110.99913 3771 ft 193 kts 134°
2026-04-23 20:09 32.15758 -110.98818 3566 ft 176 kts 134°
2026-04-23 20:09 32.14897 -110.97806 3332 ft 176 kts 135°
2026-04-23 20:09 32.14033 -110.96768 3076 ft 177 kts 135°
2026-04-23 20:10 32.13457 -110.96111 2939 ft 174 kts 137°
2026-04-23 20:10 32.12355 -110.94826 2634 ft 159 kts 134°
2026-04-23 20:10 32.11660 -110.93994 2606 ft 105 kts 132°
2026-04-23 20:10 32.11310 -110.93586 2617 ft 53 kts 133°
2026-04-23 20:11 32.11147 -110.93372 2624 ft 29 kts 113°
2026-04-23 20:11 32.11161 -110.93214 2625 ft 17 kts 19°
2026-04-23 20:11 32.11258 -110.93281 2623 ft 18 kts 315°
2026-04-23 20:11 32.11374 -110.93418 2620 ft 28 kts 315°
2026-04-23 20:12 32.11533 -110.93605 2616 ft 36 kts 315°
2026-04-23 20:12 32.11684 -110.93782 2609 ft 30 kts 315°
2026-04-23 20:12 32.11776 -110.93890 2607 ft 13 kts 315°
2026-04-23 20:12 32.11847 -110.93974 2605 ft 17 kts 315°
2026-04-23 20:13 32.11939 -110.94080 2602 ft 19 kts 315°
2026-04-23 20:13 32.12018 -110.94096 2600 ft 12 kts 57°
2026-04-23 20:13 32.12023 -110.94063 2601 ft 0 kts 98°
2026-04-23 20:13 32.12027 -110.94057 2601 ft 2 kts 21°
2026-04-23 20:14 32.12054 -110.94059 2600 ft 4 kts 26°
2026-04-23 20:14 32.12069 -110.94029 2600 ft 4 kts 73°
2026-04-23 20:14 32.12074 -110.94005 2599 ft 2 kts 77°
2026-04-23 20:14 32.12076 -110.93995 2599 ft 0 kts 77°